Ashtabula, OH

4:13 AM EST on November 18, 2017 (GMT -0500)
Ashtabula County

Weather History for KHZY - January, 2013

Change the Weather History Date:

Monday, January 21, 2013

  Actual Average (KGKJ) Record (KGKJ)
Temperature  
Mean Temperature 16 °F -  
Max Temperature 21 °F 31 °F 61 °F (2017)
Min Temperature 10 °F 12 °F -19 °F (1985)
Degree Days  
Heating Degree Days 50    
Moisture  
Dew Point 9 °F    
Average Humidity 74    
Maximum Humidity 86    
Minimum Humidity 52    
Precipitation  
Precipitation 0.07 in - - ()
Sea Level Pressure  
Sea Level Pressure 29.99 in    
Wind  
Wind Speed 11 mph (WSW)    
Max Wind Speed 24 mph    
Max Gust Speed 30 mph    
Visibility 3 miles    
Events Snow    
Averages and records for this station are not official NWS values.
T = Trace of Precipitation, MM = Missing Value Source: NWS Daily Summary

Daily Weather History Graph

Daily Weather History Graph

Search for Another Location

Airport or City:

Trip Planner

Search our weather history database for the weather conditions in past years. The results will help you decide how hot, cold, wet, or windy it might be!

Date:

Astronomy

Jan. 21, 2013 Rise Set
Actual Time 7:44 AM EST 5:24 PM EST
Civil Twilight 7:13 AM EST 5:54 PM EST
Nautical Twilight 6:39 AM EST 6:28 PM EST
Astronomical Twilight 6:06 AM EST 7:01 PM EST
Moon 1:03 PM EST (1/21) 3:11 AM EST (1/21)
Length of Visible Light 10h 40m
Length of Day
9h 40m
Waxing Gibbous, 75% of the Moon is Illuminated
Jan 21
Waxing Gibbous
Jan 26
Full
Feb 3
Last Quarter
Feb 10
New
Feb 17
First Quarter

Hourly Weather History & Observations

Time (EST) Temp. Windchill Dew Point Humidity Pressure Visibility Wind Dir Wind Speed Gust Speed Precip Events Conditions
12:53 AM 21.0 °F 9.3 °F 10.9 °F 65% 30.13 in 6.0 mi WNW 11.5 mph - 0.00 in Snow Light Snow
1:05 AM 21.2 °F 12.6 °F 12.2 °F 68% 30.08 in 5.0 mi Variable 6.9 mph - 0.00 in Snow Light Snow
1:39 AM 21.2 °F 10.9 °F 10.4 °F 63% 30.07 in 8.0 mi West 9.2 mph - 0.00 in Snow Light Snow
1:53 AM 19.9 °F 12.1 °F 12.0 °F 71% 30.11 in 6.0 mi West 5.8 mph - 0.00 in Snow Light Snow
2:28 AM 19.4 °F 12.8 °F 12.2 °F 74% 30.06 in 10.0 mi WSW 4.6 mph - 0.00 in   Overcast
2:53 AM 21.0 °F 13.4 °F 12.0 °F 68% 30.10 in 6.0 mi West 5.8 mph - 0.00 in Snow Light Snow
3:37 AM 19.4 °F 11.5 °F 14.0 °F 80% 30.05 in 4.0 mi SW 5.8 mph - 0.00 in Snow Light Snow
3:53 AM 19.9 °F 11.1 °F 14.0 °F 78% 30.09 in 2.5 mi SW 6.9 mph - 0.00 in Snow Light Snow
4:08 AM 19.4 °F 9.5 °F 14.0 °F 80% 30.04 in 2.0 mi WSW 8.1 mph - 0.00 in Snow Light Snow
4:15 AM 19.4 °F 10.4 °F 14.0 °F 80% 30.04 in 1.2 mi WSW 6.9 mph - 0.00 in Snow Light Snow
4:23 AM 19.4 °F 9.5 °F 14.0 °F 80% 30.04 in 1.0 mi WSW 8.1 mph - 0.00 in Snow Light Snow
4:38 AM 19.4 °F 7.9 °F 14.0 °F 80% 30.03 in 1.2 mi WSW 10.4 mph - 0.00 in Snow Light Snow
4:50 AM 19.4 °F 10.4 °F 14.0 °F 80% 30.03 in 1.5 mi WSW 6.9 mph - 0.00 in Snow Light Snow
4:53 AM 19.0 °F 10.0 °F 14.0 °F 81% 30.07 in 1.5 mi WSW 6.9 mph - 0.00 in Snow Light Snow
5:06 AM 19.4 °F 9.5 °F 14.0 °F 80% 30.03 in 1.0 mi WSW 8.1 mph - 0.00 in Snow Light Snow
5:16 AM 17.6 °F 6.4 °F 12.2 °F 79% 30.03 in 1.5 mi WSW 9.2 mph - 0.01 in Snow Light Snow
5:26 AM 17.6 °F 8.2 °F 12.2 °F 79% 30.02 in 1.8 mi SW 6.9 mph - 0.01 in Snow Light Snow
5:34 AM 17.6 °F 8.2 °F 12.2 °F 79% 30.02 in 2.0 mi WSW 6.9 mph - 0.01 in Snow Light Snow
5:51 AM 17.6 °F 7.3 °F 12.2 °F 79% 30.02 in 1.5 mi SW 8.1 mph - 0.01 in Snow Light Snow
5:53 AM 18.0 °F 7.7 °F 12.9 °F 81% 30.06 in 1.8 mi WSW 8.1 mph - 0.01 in Snow Light Snow
6:04 AM 17.6 °F 7.3 °F 12.2 °F 79% 30.01 in 2.0 mi SW 8.1 mph - 0.00 in Snow Light Snow
6:11 AM 17.6 °F 6.4 °F 12.2 °F 79% 30.01 in 1.5 mi WSW 9.2 mph - 0.00 in Snow Light Snow
6:53 AM 18.0 °F 7.7 °F 12.9 °F 81% 30.06 in 2.0 mi WSW 8.1 mph - 0.00 in Snow Light Snow
7:35 AM 17.6 °F 6.4 °F 12.2 °F 79% 30.01 in 3.0 mi SW 9.2 mph - 0.00 in Snow Light Snow
7:53 AM 17.1 °F 5.8 °F 12.0 °F 81% 30.05 in 4.0 mi SW 9.2 mph - 0.00 in Snow Light Snow
8:53 AM 18.0 °F 11.1 °F 12.0 °F 78% 30.04 in 8.0 mi WSW 4.6 mph - 0.00 in   Overcast
9:53 AM 18.0 °F 8.7 °F 10.9 °F 74% 30.03 in 2.0 mi SW 6.9 mph - 0.00 in Snow Light Snow
9:57 AM 17.6 °F 7.3 °F 10.4 °F 73% 29.99 in 1.0 mi SW 8.1 mph - 0.00 in Snow Light Snow
10:10 AM 17.6 °F 9.3 °F 10.4 °F 73% 29.98 in 2.0 mi SW 5.8 mph - 0.00 in Snow Light Snow
10:29 AM 17.6 °F 6.4 °F 10.4 °F 73% 29.98 in 4.0 mi SW 9.2 mph - 0.00 in Snow Light Snow
10:53 AM 19.0 °F 9.0 °F 9.0 °F 65% 30.01 in 7.0 mi SW 8.1 mph - 0.00 in   Overcast
11:53 AM 19.0 °F 6.8 °F 7.0 °F 59% 29.98 in 10.0 mi SW 11.5 mph - N/A   Overcast
12:53 PM 19.9 °F 6.2 °F 5.0 °F 52% 29.94 in 10.0 mi SW 15.0 mph - N/A   Overcast
1:53 PM 19.9 °F 4.8 °F 8.1 °F 60% 29.94 in 10.0 mi West 18.4 mph - N/A   Overcast
2:21 PM 19.4 °F 4.1 °F 10.4 °F 68% 29.91 in 1.5 mi West 18.4 mph 26.5 mph 0.00 in Snow Light Snow
2:24 PM 19.4 °F 4.1 °F 12.2 °F 74% 29.91 in 0.8 mi West 18.4 mph 26.5 mph 0.00 in Snow Light Snow
2:32 PM 19.4 °F 5.5 °F 12.2 °F 74% 29.91 in 1.2 mi West 15.0 mph - 0.00 in Snow Light Snow
2:37 PM 19.4 °F 4.1 °F 10.4 °F 68% 29.91 in 2.5 mi WSW 18.4 mph 26.5 mph 0.00 in Snow Light Snow
2:45 PM 19.4 °F 4.5 °F 10.4 °F 68% 29.90 in 4.0 mi West 17.3 mph 26.5 mph 0.00 in Snow Light Snow
2:53 PM 19.9 °F 5.2 °F 9.0 °F 62% 29.94 in 9.0 mi West 17.3 mph 25.3 mph 0.00 in   Mostly Cloudy
3:34 PM 19.4 °F 5.5 °F 10.4 °F 68% 29.91 in 1.8 mi West 15.0 mph - 0.00 in Snow Light Snow
3:44 PM 19.4 °F 5.5 °F 10.4 °F 68% 29.91 in 3.0 mi WSW 15.0 mph - 0.00 in Snow Light Snow
3:53 PM 19.0 °F 6.1 °F 10.9 °F 71% 29.96 in 3.0 mi West 12.7 mph - 0.00 in Snow Light Snow
4:00 PM 19.4 °F 6.0 °F 10.4 °F 68% 29.92 in 7.0 mi West 13.8 mph - 0.00 in Snow Light Snow
4:08 PM 17.6 °F 2.7 °F 10.4 °F 73% 29.92 in 1.8 mi West 16.1 mph - 0.00 in Snow Light Snow
4:15 PM 17.6 °F 4.3 °F 12.2 °F 79% 29.93 in 0.8 mi West 12.7 mph 23.0 mph 0.00 in Snow Light Snow
4:29 PM 17.6 °F 5.7 °F 10.4 °F 73% 29.93 in 1.2 mi West 10.4 mph - 0.00 in Snow Light Snow
4:32 PM 17.6 °F 3.7 °F 10.4 °F 73% 29.93 in 3.0 mi West 13.8 mph - 0.00 in Snow Light Snow
4:40 PM 17.6 °F -0.3 °F 10.4 °F 73% 29.93 in 1.2 mi West 24.2 mph 29.9 mph 0.00 in Snow Light Snow
4:43 PM 17.6 °F 0.5 °F 10.4 °F 73% 29.93 in 0.8 mi WSW 21.9 mph 29.9 mph 0.00 in Snow Light Snow
4:53 PM 17.1 °F 1.5 °F 10.0 °F 74% 29.98 in 1.0 mi West 17.3 mph 26.5 mph 0.00 in Snow Light Snow
5:00 PM 15.8 °F 1.4 °F 8.6 °F 73% 29.94 in 2.5 mi West 13.8 mph 25.3 mph 0.00 in Snow Light Snow
5:15 PM 15.8 °F 1.4 °F 10.4 °F 79% 29.94 in 3.0 mi West 13.8 mph 21.9 mph 0.00 in Snow Light Snow
5:53 PM 16.0 °F 1.1 °F 9.0 °F 74% 30.00 in 3.0 mi West 15.0 mph 24.2 mph 0.00 in Snow Light Snow
6:05 PM 15.8 °F 0.3 °F 8.6 °F 73% 29.95 in 1.8 mi WSW 16.1 mph - 0.00 in Snow Light Snow
6:09 PM 15.8 °F 1.4 °F 8.6 °F 73% 29.96 in 0.8 mi WSW 13.8 mph - 0.00 in Snow Light Snow
6:25 PM 15.8 °F -0.2 °F 10.4 °F 79% 29.96 in 0.5 mi WSW 17.3 mph - 0.00 in Snow Snow
6:53 PM 15.1 °F 0.5 °F 10.0 °F 80% 30.01 in 0.5 mi SW 13.8 mph - 0.01 in Snow Snow
7:05 PM 14.0 °F -0.2 °F 8.6 °F 79% 29.96 in 1.0 mi WSW 12.7 mph - 0.00 in Snow Light Snow
7:09 PM 14.0 °F -0.8 °F 8.6 °F 79% 29.96 in 2.0 mi WSW 13.8 mph - 0.00 in Snow Light Snow
7:17 PM 14.0 °F 2.0 °F 8.6 °F 79% 29.96 in 1.0 mi WSW 9.2 mph 18.4 mph 0.00 in Snow Light Snow
7:20 PM 14.0 °F 1.2 °F 8.6 °F 79% 29.96 in 0.5 mi SW 10.4 mph - 0.00 in Snow Snow
7:53 PM 15.1 °F 4.2 °F 10.0 °F 80% 30.01 in 1.0 mi West 8.1 mph - 0.03 in Snow Light Snow
7:58 PM 15.8 °F 5.1 °F 10.4 °F 79% 29.97 in 1.2 mi WSW 8.1 mph - 0.00 in Snow Light Snow
8:11 PM 14.0 °F 1.2 °F 10.4 °F 86% 29.97 in 0.8 mi WSW 10.4 mph - 0.00 in Snow Light Snow
8:30 PM 14.0 °F -0.2 °F 8.6 °F 79% 29.97 in 0.5 mi WSW 12.7 mph 18.4 mph 0.00 in Snow Snow
8:53 PM 14.0 °F 2.0 °F 9.0 °F 80% 30.02 in 0.8 mi West 9.2 mph - 0.01 in Snow Light Snow
8:56 PM 14.0 °F 2.9 °F 8.6 °F 79% 29.97 in 1.0 mi West 8.1 mph - 0.00 in Snow Light Snow
9:05 PM 14.0 °F 2.9 °F 8.6 °F 79% 29.98 in 1.5 mi West 8.1 mph - 0.00 in Snow Light Snow
9:09 PM 14.0 °F 1.2 °F 8.6 °F 79% 29.98 in 2.0 mi West 10.4 mph - 0.00 in Snow Light Snow
9:22 PM 14.0 °F 1.2 °F 3.2 °F 62% 29.98 in 5.0 mi West 10.4 mph - 0.00 in Snow Light Snow
9:47 PM 14.0 °F -0.8 °F 5.0 °F 67% 29.99 in 2.5 mi West 13.8 mph - 0.00 in Snow Light Snow
9:48 PM 12.9 °F -2.2 °F 5.0 °F 71% 30.04 in 2.0 mi West 13.8 mph - 0.00 in Snow Light Snow
9:56 PM 12.2 °F -3.1 °F 6.8 °F 79% 29.99 in 1.5 mi West 13.8 mph 19.6 mph 0.00 in Snow Light Snow
10:05 PM 12.2 °F -3.1 °F 6.8 °F 79% 29.99 in 0.8 mi West 13.8 mph - 0.00 in Snow Light Snow
10:13 PM 12.2 °F -3.1 °F 6.8 °F 79% 29.99 in 1.2 mi West 13.8 mph - 0.00 in Snow Light Snow
10:53 PM 12.0 °F -5.6 °F 3.0 °F 67% 30.05 in 2.0 mi WNW 18.4 mph 27.6 mph 0.01 in Snow Light Snow
10:58 PM 12.2 °F -4.8 °F 3.2 °F 67% 30.00 in 1.0 mi WNW 17.3 mph 27.6 mph 0.00 in Snow Light Snow
11:06 PM 12.2 °F -4.8 °F 3.2 °F 67% 30.00 in 0.8 mi West 17.3 mph 27.6 mph 0.00 in Snow Light Snow
11:17 PM 10.4 °F -4.1 °F 3.2 °F 73% 30.00 in 1.2 mi West 11.5 mph 20.7 mph 0.00 in Snow Light Snow
11:23 PM 12.2 °F -1.8 °F 3.2 °F 67% 30.01 in 3.0 mi WNW 11.5 mph 20.7 mph 0.00 in Snow Light Snow
11:28 PM 10.4 °F -7.7 °F 3.2 °F 73% 30.01 in 1.5 mi West 18.4 mph 26.5 mph 0.00 in Snow Light Snow
11:32 PM 10.4 °F -7.7 °F 3.2 °F 73% 30.01 in 0.8 mi WNW 18.4 mph 28.8 mph 0.00 in Snow Light Snow
11:40 PM 10.4 °F -3.3 °F 1.4 °F 67% 30.01 in 1.2 mi West 10.4 mph 25.3 mph 0.00 in Snow Light Snow
11:45 PM 10.4 °F -4.1 °F 1.4 °F 67% 30.01 in 3.0 mi West 11.5 mph 24.2 mph 0.00 in Snow Light Snow
11:53 PM 10.9 °F -3.4 °F 1.0 °F 64% 30.06 in 5.0 mi West 11.5 mph 19.6 mph 0.00 in Snow Light Snow